Retour au catalogue

SCOUT G-1 DEB

ActifPO
NORAD 29212·DEBRIS·🇺🇸 United States

Lancé Apr 26, 1988 depuis Vandenberg Space Force Base

Loading…

Prochains Passages (prochaines 24 heures)

TLE

PériméSource: Space-Track

Époque: Aug 16, 2026, 15:22 UTC

1 29212U 88033H   26228.64028007  .00002117  00000-0  24777-2 0  9995
2 29212  90.2993  13.3443 0152348 293.3148  80.6434 13.63370434205120

Suivez SCOUT G-1 DEB en temps réel avec AllMySat

Download on the App Store